Dewpoint
9 9 8 8 8 8 9 8 8 7 6 5 5 5 4 4 4 3 2 3 3 3 3 3 2 1 0
8 8 8 8 8 8 8 8 8 6 6 6 6 5 5 4 4 2 1 3 3 3 3 3 1 1 0
8 8 8 8 8 8 8 8 7 7 7 7 6 5 4 4 3 2 3 2 2 3 3 2 1 0 -0
8 8 8 8 8 8 7 7 7 7 7 6 5 5 4 3 2 2 2 2 3 3 2 2 1 -0 -0
7 8 8 8 8 7 7 7 7 6 6 5 5 4 3 2 2 2 1 2 2 2 1 1 -0 -0 -2
6 6 6 7 7 7 7 6 6 6 5 5 4 3 2 1 1 1 1 1 1 1 1 -0 -0 -2 -5
5 6 6 7 7 7 6 6 4 4 5 4 3 2 1 0 1 0 0 0 0 1 -0 -0 -2 -3 -5
4 5 6 6 7 6 5 4 5 5 4 1 1 0 -0 0 1 0 0 0 1 1 -0 -1 -4 -9 -3
4 4 5 5 6 5 5 5 4 4 3 2 1 0 0 0 0 0 0 0 1 -0 -0 -3 -10 -17 -3
2 3 4 4 5 4 4 4 4 3 2 2 1 1 0 -0 -0 -0 -0 0 0 -1 -1 -6 -18 -23 -6
1 2 2 3 3 4 4 3 3 3 3 3 2 0 0 -1 -0 -0 -0 -1 -1 -1 -9 -17 -25 -25 -12
0 1 1 2 2 3 3 3 3 3 3 2 1 -0 -0 -0 -2 -2 -1 -1 -1 -2 -19 -23 -25 -25 -20
-1 0 1 1 1 1 2 2 2 2 1 1 -0 -0 -1 -0 -1 -2 -2 -4 -4 -6 -19 -21 -23 -25 -23
-2 -1 0 0 0 0 -0 1 1 1 0 0 -0 -0 -1 -1 -1 -2 -2 -8 -9 -12 -18 -19 -20 -21 -22
-2 -1 -1 -0 -0 -0 -0 -0 0 0 -0 -0 -1 -1 -1 -2 -2 -2 -4 -4 -12 -15 -18 -17 -17 -18 -19
-4 -3 -2 -1 -1 -1 -1 -1 -1 -0 -1 -1 -1 -1 -2 -2 -2 -3 -7 -6 -12 -18 -18 -16 -16 -15 -16
-5 -4 -3 -2 -2 -1 -2 -2 -1 -1 -1 -1 -1 -2 -2 -3 -3 -3 -9 -13 -16 -17 -17 -18 -17 -16 -15
Wind_Speed
29 26 25 22 23 28 35 37 32 27 23 20 25 24 23 22 22 23 24 22 20 17 16 15 15 17 19
27 27 30 22 24 28 30 26 30 27 25 26 26 25 24 23 24 25 20 19 18 19 17 16 16 17 20
32 27 25 29 27 27 35 36 31 29 28 28 27 26 25 25 26 20 17 17 19 18 19 17 17 19 21
30 29 30 32 31 31 33 37 34 32 32 29 28 28 26 24 22 20 19 20 19 18 17 17 17 19 18
31 34 32 35 37 40 39 38 33 32 32 31 30 28 25 24 21 21 19 18 18 17 18 18 16 18 13
34 38 36 36 38 40 37 35 34 35 34 33 31 31 25 23 22 21 20 19 19 20 17 15 17 13 10
31 36 37 37 43 43 43 40 36 37 33 35 33 30 26 23 23 21 20 18 18 17 15 16 13 11 9
32 34 33 34 44 40 38 38 36 35 30 26 27 26 24 24 25 23 21 19 18 17 16 14 11 11 12
27 28 29 35 36 36 36 33 35 35 31 27 24 21 20 24 24 23 22 20 19 18 16 13 12 12 14
27 27 26 27 32 38 39 41 39 33 31 27 23 20 16 23 23 23 23 22 19 17 16 14 13 16 18
28 27 26 28 32 31 35 38 40 35 30 29 28 26 21 9 23 25 24 22 18 19 15 14 16 18 19
27 27 27 29 26 33 33 35 34 31 27 27 25 26 28 24 17 20 21 22 21 20 15 16 17 21 22
30 29 28 28 29 30 29 33 29 26 24 24 21 19 18 23 28 20 17 20 22 22 17 17 16 19 22
29 29 26 25 29 31 31 31 29 28 30 26 23 21 22 26 21 19 19 15 24 23 19 19 18 19 20
23 24 27 25 26 29 30 32 32 35 34 30 27 26 24 23 22 20 20 24 16 24 24 22 21 19 20
18 18 25 25 26 26 29 32 36 36 34 31 32 30 26 24 23 20 21 22 22 20 26 23 22 21 20
16 15 19 20 25 25 28 32 35 34 31 30 31 30 29 28 26 24 21 23 23 23 25 25 23 21 20
Wind_Direction
273 266 262 261 253 241 220 211 218 216 218 223 235 241 243 247 251 260 264 254 253 260 266 269 272 285 295
277 268 258 248 244 237 218 221 212 214 222 227 231 235 242 249 257 267 253 246 253 260 261 264 273 282 290
272 265 249 237 232 232 224 221 211 219 226 232 234 238 242 252 262 255 243 245 251 254 258 262 272 281 288
256 262 248 233 228 223 217 215 213 218 228 230 236 241 246 253 261 242 244 248 250 250 257 269 276 282 284
267 252 250 232 228 219 216 212 219 222 228 231 236 243 244 253 250 249 241 245 245 254 265 268 274 280 264
252 259 253 257 237 224 216 210 213 224 228 233 237 242 244 246 248 245 241 247 253 254 258 267 277 255 246
251 254 258 253 234 217 214 212 217 225 229 236 236 238 242 243 237 239 239 242 248 253 255 269 253 239 217
255 253 252 252 235 220 215 213 220 227 222 227 228 232 240 233 230 233 235 239 244 247 254 260 234 223 196
263 254 252 246 220 212 217 217 219 219 217 222 231 232 229 228 229 231 233 237 241 244 257 243 227 211 194
264 262 247 240 220 216 217 208 208 210 219 220 228 226 220 228 223 224 229 230 231 247 251 232 214 205 197
264 260 254 241 223 215 212 217 214 215 220 220 228 221 216 229 221 219 219 223 231 243 234 223 209 201 198
262 254 251 243 240 224 213 219 220 230 233 223 218 216 217 220 213 207 215 225 227 231 224 215 207 196 198
271 257 248 245 238 237 219 213 211 217 214 215 220 216 210 218 219 210 221 226 219 219 212 207 202 199 200
270 265 256 245 238 232 227 217 211 210 209 208 212 213 212 216 216 218 227 213 211 209 206 200 196 195 197
271 263 255 246 233 233 228 220 213 207 206 205 206 207 209 217 218 224 221 210 215 205 202 198 195 191 192
304 273 261 243 236 231 229 220 218 211 211 207 204 200 203 211 221 223 213 209 207 204 200 200 197 196 193
305 299 271 252 243 228 221 218 217 215 215 215 208 207 206 211 219 220 211 210 204 197 198 202 199 200 200
Height
1449 1451 1451 1453 1455 1457 1458 1461 1467 1472 1476 1479 1484 1486 1489 1489 1491 1491 1489 1489 1490 1490 1489 1490 1491 1491 1490
1444 1443 1445 1446 1450 1452 1454 1457 1461 1465 1469 1473 1475 1478 1482 1484 1484 1484 1482 1484 1485 1485 1484 1486 1484 1484 1483
1435 1436 1436 1438 1442 1445 1449 1451 1454 1460 1463 1467 1469 1472 1473 1475 1476 1475 1476 1478 1479 1479 1480 1479 1480 1480 1477
1428 1429 1429 1432 1435 1438 1441 1443 1447 1451 1457 1461 1463 1465 1468 1468 1470 1470 1471 1472 1474 1474 1474 1476 1475 1475 1472
1422 1420 1421 1422 1425 1428 1431 1434 1440 1445 1449 1453 1456 1457 1459 1462 1463 1464 1465 1467 1468 1469 1468 1470 1468 1468 1467
1411 1415 1412 1415 1416 1420 1423 1427 1431 1437 1441 1445 1448 1450 1452 1453 1457 1459 1459 1461 1463 1463 1464 1464 1463 1462 1463
1398 1398 1403 1405 1407 1410 1412 1415 1421 1427 1432 1438 1442 1443 1444 1444 1449 1453 1453 1455 1459 1459 1459 1459 1457 1459 1459
1391 1390 1390 1395 1396 1402 1405 1409 1414 1421 1424 1430 1434 1434 1437 1439 1442 1446 1447 1449 1452 1454 1456 1455 1454 1456 1457
1383 1383 1383 1384 1387 1392 1399 1402 1406 1411 1416 1421 1425 1428 1429 1433 1436 1440 1441 1444 1447 1449 1450 1451 1452 1453 1456
1376 1377 1377 1376 1375 1380 1387 1390 1396 1401 1406 1412 1415 1423 1426 1428 1431 1432 1436 1438 1441 1444 1446 1446 1447 1450 1452
1369 1370 1371 1369 1369 1370 1375 1381 1385 1390 1396 1399 1406 1414 1418 1421 1422 1426 1429 1432 1434 1437 1440 1442 1443 1446 1451
1360 1361 1363 1363 1363 1366 1365 1374 1379 1384 1388 1392 1396 1400 1406 1413 1419 1421 1423 1426 1429 1432 1434 1439 1441 1442 1445
1352 1352 1354 1357 1359 1360 1360 1364 1371 1376 1380 1386 1390 1396 1398 1405 1414 1411 1415 1419 1423 1428 1430 1433 1437 1440 1442
1346 1346 1346 1347 1350 1353 1355 1359 1362 1368 1376 1381 1385 1388 1393 1403 1403 1404 1410 1414 1418 1421 1427 1428 1432 1436 1440
1340 1339 1339 1341 1341 1347 1348 1354 1356 1361 1370 1373 1378 1385 1391 1395 1395 1399 1406 1408 1413 1416 1421 1425 1429 1432 1437
1333 1332 1332 1334 1337 1339 1343 1347 1352 1357 1363 1368 1373 1378 1383 1387 1392 1395 1400 1404 1407 1412 1416 1421 1425 1430 1433
1330 1329 1328 1328 1331 1333 1338 1342 1347 1352 1358 1363 1368 1372 1375 1380 1386 1391 1394 1401 1403 1407 1411 1416 1421 1427 1430